Falfurrias, TX

12:04 PM CDT on October 01, 2016 (GMT -0500)
Falfurrias

Weather History for KBKS - November, 2013

Change the Weather History Date:

Tuesday, November 5, 2013

  Actual Average (KNQI) Record (KNQI)
Temperature  
Mean Temperature 76 °F -  
Max Temperature 88 °F 76 °F 91 °F (2015)
Min Temperature 65 °F 56 °F 39 °F (2010)
Cooling Degree Days 12    
Growing Degree Days 26 (Base 50)    
Moisture  
Dew Point 69 °F    
Average Humidity 77    
Maximum Humidity 97    
Minimum Humidity 47    
Precipitation  
Precipitation 0.03 in - - ()
Sea Level Pressure  
Sea Level Pressure 29.93 in    
Wind  
Wind Speed 6 mph (SE)    
Max Wind Speed 17 mph    
Max Gust Speed 24 mph    
Visibility 10 miles    
Events      
Averages and records for this station are not official NWS values.
T = Trace of Precipitation, MM = Missing Value Source: NWS Daily Summary

Daily Weather History Graph

Daily Weather History Graph

Search for Another Location

Airport or City:

Trip Planner

Search our weather history database for the weather conditions in past years. The results will help you decide how hot, cold, wet, or windy it might be!

Date:

Astronomy

Nov. 05, 2013 Rise Set
Actual Time 6:45 AM CST 5:46 PM CST
Civil Twilight 6:21 AM CST 6:10 PM CST
Nautical Twilight 5:53 AM CST 6:38 PM CST
Astronomical Twilight 5:26 AM CST 7:05 PM CST
Moon 8:54 AM CST (11/5) 7:56 PM CST (11/5)
Length of Visible Light 11h 48m
Length of Day
11h 00m
Waxing Crescent, 7% of the Moon is Illuminated
Nov 5
Waxing Crescent
Nov 9
First Quarter
Nov 17
Full
Nov 25
Last Quarter
Dec 2
New

Hourly Weather History & Observations

Time (CST) Temp. Heat Index Dew Point Humidity Pressure Visibility Wind Dir Wind Speed Gust Speed Precip Events Conditions
12:15 AM 71.4 °F - 65.8 °F 82% 29.97 in 10.0 mi Calm Calm - N/A   Clear
12:35 AM 70.7 °F - 65.7 °F 84% 29.97 in 10.0 mi East 3.5 mph - N/A   Clear
12:55 AM 70.2 °F - 65.7 °F 86% 29.96 in 10.0 mi ESE 3.5 mph - N/A   Clear
1:15 AM 70.2 °F - 65.8 °F 86% 29.96 in 10.0 mi East 3.5 mph - N/A   Scattered Clouds
1:35 AM 69.4 °F - 65.7 °F 88% 29.96 in 10.0 mi ESE 3.5 mph - N/A   Scattered Clouds
1:55 AM 68.9 °F - 65.5 °F 89% 29.95 in 10.0 mi East 3.5 mph - N/A   Clear
2:15 AM 69.1 °F - 65.8 °F 89% 29.95 in 10.0 mi East 3.5 mph - N/A   Mostly Cloudy
2:35 AM 69.4 °F - 66.2 °F 89% 29.95 in 10.0 mi Calm Calm - N/A   Overcast
2:55 AM 70.2 °F - 66.2 °F 87% 29.93 in 10.0 mi Calm Calm - N/A   Overcast
3:15 AM 70.0 °F - 66.2 °F 88% 29.92 in 10.0 mi ESE 3.5 mph - N/A   Overcast
3:35 AM 69.4 °F - 66.0 °F 89% 29.92 in 10.0 mi East 4.6 mph - N/A   Scattered Clouds
3:55 AM 68.9 °F - 65.8 °F 90% 29.92 in 10.0 mi East 3.5 mph - N/A   Scattered Clouds
4:15 AM 68.2 °F - 65.7 °F 92% 29.91 in 10.0 mi East 3.5 mph - N/A   Clear
4:35 AM 68.0 °F - 65.5 °F 92% 29.91 in 10.0 mi East 3.5 mph - N/A   Clear
4:55 AM 67.5 °F - 65.3 °F 93% 29.92 in 10.0 mi Calm Calm - N/A   Clear
5:15 AM 67.6 °F - 65.7 °F 93% 29.92 in 10.0 mi Calm Calm - N/A   Clear
5:35 AM 67.3 °F - 65.5 °F 94% 29.92 in 10.0 mi Calm Calm - N/A   Clear
5:55 AM 66.2 °F - 64.6 °F 94% 29.92 in 10.0 mi East 3.5 mph - N/A   Clear
6:15 AM 66.2 °F - 64.8 °F 95% 29.92 in 10.0 mi East 3.5 mph - N/A   Clear
6:35 AM 66.2 °F - 64.8 °F 95% 29.93 in 10.0 mi East 3.5 mph - N/A   Clear
6:55 AM 65.7 °F - 64.6 °F 96% 29.93 in 7.0 mi East 3.5 mph - N/A   Clear
7:15 AM 66.0 °F - 64.8 °F 96% 29.94 in 7.0 mi East 3.5 mph - N/A   Clear
7:35 AM 66.4 °F - 65.5 °F 97% 29.94 in 7.0 mi Calm Calm - N/A   Clear
7:55 AM 68.0 °F - 67.1 °F 97% 29.95 in 10.0 mi East 3.5 mph - N/A   Clear
8:15 AM 70.2 °F - 68.4 °F 94% 29.96 in 10.0 mi East 3.5 mph - N/A   Clear
8:35 AM 73.8 °F - 69.1 °F 85% 29.96 in 10.0 mi ESE 5.8 mph - N/A   Clear
8:55 AM 78.1 °F - 69.8 °F 76% 29.97 in 10.0 mi SE 11.5 mph - N/A   Clear
9:15 AM 81.0 °F 84.4 °F 69.8 °F 69% 29.97 in 10.0 mi South 6.9 mph - N/A   Scattered Clouds
9:35 AM 81.7 °F 85.4 °F 70.3 °F 68% 29.97 in 10.0 mi SE 11.5 mph - N/A   Scattered Clouds
9:55 AM 82.8 °F 86.9 °F 70.2 °F 66% 29.97 in 10.0 mi SE 15.0 mph 21.9 mph N/A   Mostly Cloudy
10:15 AM - - - N/A% - - North - - N/A   Unknown
10:35 AM 82.6 °F 86.4 °F 69.6 °F 65% 29.97 in - SSE 13.8 mph 20.7 mph 0.03 in   Overcast
10:55 AM 84.6 °F 88.5 °F 69.4 °F 60% 29.96 in 10.0 mi SSE 12.7 mph - 0.03 in   Mostly Cloudy
11:15 AM 86.0 °F 88.8 °F 67.3 °F 53% 29.96 in 10.0 mi South 17.3 mph - N/A   Mostly Cloudy
11:35 AM 87.1 °F 89.9 °F 66.9 °F 51% 29.94 in 10.0 mi SE 15.0 mph 24.2 mph N/A   Scattered Clouds
11:55 AM 88.2 °F 90.6 °F 66.4 °F 48% 29.94 in 10.0 mi SSE 16.1 mph 20.7 mph N/A   Scattered Clouds
12:15 PM 87.3 °F 89.8 °F 66.7 °F 50% 29.93 in 10.0 mi South 15.0 mph 19.6 mph N/A   Scattered Clouds
12:35 PM 88.2 °F 90.3 °F 65.3 °F 47% 29.92 in 10.0 mi SSE 11.5 mph 23.0 mph N/A   Scattered Clouds
12:55 PM 87.3 °F 89.2 °F 65.7 °F 48% 29.91 in 10.0 mi SSE 12.7 mph 18.4 mph N/A   Mostly Cloudy
1:15 PM 87.3 °F 89.8 °F 66.4 °F 50% 29.90 in 10.0 mi SE 10.4 mph 18.4 mph N/A   Overcast
1:35 PM 87.3 °F 89.5 °F 66.2 °F 49% 29.89 in 10.0 mi SSE 10.4 mph - N/A   Mostly Cloudy
1:55 PM 88.7 °F 91.5 °F 66.6 °F 48% 29.88 in 10.0 mi ESE 10.4 mph 20.7 mph N/A   Mostly Cloudy
2:15 PM 87.8 °F 91.1 °F 67.6 °F 51% 29.88 in 10.0 mi SE 11.5 mph 16.1 mph N/A   Scattered Clouds
2:35 PM 87.6 °F 91.9 °F 68.9 °F 54% 29.87 in 10.0 mi ESE 12.7 mph 17.3 mph N/A   Scattered Clouds
2:55 PM 87.1 °F 92.0 °F 70.3 °F 57% 29.87 in 10.0 mi ESE 15.0 mph 21.9 mph N/A   Scattered Clouds
3:15 PM 85.5 °F 90.8 °F 70.9 °F 62% 29.87 in 10.0 mi SE 13.8 mph 18.4 mph N/A   Mostly Cloudy
3:35 PM 85.5 °F 90.8 °F 70.9 °F 62% 29.87 in 10.0 mi SE 10.4 mph 16.1 mph N/A   Mostly Cloudy
3:55 PM 85.3 °F 91.1 °F 71.8 °F 64% 29.87 in 10.0 mi ESE 10.4 mph 18.4 mph N/A   Overcast
4:15 PM 84.6 °F 90.0 °F 71.6 °F 65% 29.87 in 10.0 mi SE 9.2 mph 16.1 mph N/A   Overcast
4:35 PM 84.6 °F 90.0 °F 71.6 °F 65% 29.87 in 10.0 mi ESE 11.5 mph - N/A   Overcast
4:55 PM 84.4 °F 89.7 °F 71.2 °F 65% 29.87 in 10.0 mi SE 11.5 mph - N/A   Overcast
5:15 PM 83.8 °F 88.9 °F 71.2 °F 66% 29.87 in 10.0 mi SE 9.2 mph - N/A   Overcast
5:35 PM 83.5 °F 88.2 °F 70.9 °F 66% 29.88 in 10.0 mi SE 10.4 mph - N/A   Scattered Clouds
5:55 PM 82.4 °F 86.7 °F 71.1 °F 68% 29.88 in 10.0 mi ESE 10.4 mph 16.1 mph N/A   Clear
6:15 PM 81.9 °F 86.2 °F 71.1 °F 70% 29.89 in 10.0 mi SE 11.5 mph 17.3 mph N/A   Clear
6:35 PM 81.0 °F 84.9 °F 71.2 °F 72% 29.89 in 10.0 mi SE 8.1 mph 18.4 mph N/A   Clear
6:55 PM 80.6 °F 84.4 °F 71.1 °F 73% 29.90 in 10.0 mi SE 11.5 mph 16.1 mph N/A   Clear
7:15 PM 79.9 °F - 71.6 °F 76% 29.91 in 10.0 mi SE 11.5 mph 17.3 mph N/A   Clear
7:35 PM 79.2 °F - 72.0 °F 78% 29.92 in 10.0 mi SE 13.8 mph 18.4 mph N/A   Clear
7:55 PM 79.0 °F - 72.5 °F 80% 29.92 in 10.0 mi SE 10.4 mph - N/A   Clear
8:15 PM 78.8 °F - 72.7 °F 81% 29.93 in 10.0 mi SE 9.2 mph - N/A   Clear
8:35 PM 78.3 °F - 72.7 °F 83% 29.94 in 10.0 mi SE 9.2 mph - N/A   Clear
8:55 PM 77.9 °F - 72.7 °F 84% 29.95 in 10.0 mi SE 6.9 mph - N/A   Clear
9:15 PM 77.5 °F - 72.9 °F 85% 29.95 in 10.0 mi SE 6.9 mph - N/A   Scattered Clouds
9:35 PM 77.0 °F - 72.9 °F 87% 29.96 in 10.0 mi SE 5.8 mph - N/A   Scattered Clouds
9:55 PM 77.0 °F - 73.2 °F 88% 29.96 in 10.0 mi SE 5.8 mph - N/A   Scattered Clouds
10:15 PM 76.6 °F - 73.0 °F 89% 29.96 in 10.0 mi SE 4.6 mph - N/A   Mostly Cloudy
10:35 PM 76.1 °F - 73.0 °F 90% 29.96 in 10.0 mi SE 5.8 mph - N/A   Scattered Clouds
10:55 PM 76.1 °F - 73.2 °F 91% 29.96 in 10.0 mi ESE 5.8 mph - N/A   Scattered Clouds
11:15 PM 75.6 °F - 73.0 °F 92% 29.97 in 10.0 mi SE 3.5 mph - N/A   Clear
11:35 PM 75.2 °F - 72.9 °F 92% 29.97 in 10.0 mi ESE 3.5 mph - N/A   Clear
11:55 PM 74.5 °F - 72.5 °F 94% 29.97 in 7.0 mi Calm Calm - N/A   Scattered Clouds